Tracking 27122 objects as of 25-Mar-2023
HD Live streaming from Space Station
objects crossing your sky now

TJS-3

Track TJS-3 now!
TJS-3 is classified as:


NORAD ID: 43874
Int'l Code: 2018-110A
Perigee: 35,761.0 km
Apogee: 35,823.9 km
Inclination: 0.0 °
Period: 1,436.0 minutes
Semi major axis: 42163 km
RCS: Unknown
Launch date: December 24, 2018
Source: People's Republic of China (PRC)
Launch site: Xichang Space Center, China (XSC)
Your satellite tracking list
Your tracking list is empty




NASA's NSSDC Master Catalog

Two Line Element Set (TLE):
1 43874U 18110A   23083.89464699 -.00000307  00000-0  00000-0 0  9999
2 43874   0.0157 138.3564 0007461 175.3492 327.9191  1.00276475 15583
Source of the keplerian elements: AFSPC